[[{"header":{"parameterUnit":"m.s-1","parameterCategory":1,"la1":30.2991,"la2":30.254,"lo1":-89.0895,"lo2":-89.0444,"dy":0.0017,"dx":0.0017,"nx":28,"ny":28,"refTime":"2023-04-16T21:00:00:Z","depth":0,"parameterNumber":2,"parameterNumberName":"U-component_of_WINDS"},"data":[0,0,0,0,0,0,0,0,0,0,0,0,0,0,0,0,0,0,0,0,0,0,0,0,0,0,0,0,0,0,0,0,0,0,0,0,0,0,0,0,0,0,0,0,0,0,0,0,0,0,0,0,0,0,0,0,0,0,-2.6939,-2.6939,0,-2.6906,-2.6905,-2.6905,-2.6795,-2.6792,-2.679,-2.6787,-2.6756,-2.6757,-2.6759,0,0,0,0,0,0,0,0,0,0,0,0,0,-2.691,-2.6911,-2.6939,-2.6939,-2.6938,-2.6906,-2.6905,-2.6905,-2.6795,-2.6792,-2.6789,-2.6786,-2.6755,-2.6757,-2.6759,0,0,0,0,0,0,0,0,0,0,0,0,0,-2.6904,-2.6911,-2.6939,-2.6879,-2.6874,-2.6906,-2.6905,-2.6905,-2.6796,-2.6792,-2.6788,-2.6785,-2.6755,-2.6757,-2.6759,-2.6847,0,0,-2.6766,-2.6767,0,0,0,0,0,0,0,0,-2.6905,-2.6905,-2.6889,-2.6884,-2.6877,-2.685,-2.6883,-2.6885,-2.6797,-2.6825,-2.6787,-2.6783,-2.679,-2.6789,-2.6791,-2.6845,-2.6844,-2.6766,-2.6767,-2.6768,-2.6769,0,0,0,0,0,0,0,-2.6905,-2.6906,-2.6926,-2.6888,-2.6882,-2.6855,-2.685,-2.6883,-2.6829,-2.6823,-2.6814,-2.6812,-2.6787,-2.6789,-2.679,-2.6843,-2.6766,-2.6768,-2.6769,-2.677,-2.6967,-2.6971,0,0,0,0,0,0,-2.6914,-2.6907,-2.6927,-2.6925,-2.6882,-2.6859,-2.6853,-2.6863,-2.6828,-2.682,-2.6815,-2.6807,-2.6788,-2.6787,-2.6788,-2.6888,-2.6768,-2.677,-2.6771,-2.6963,-2.6968,-2.6972,0,0,0,0,0,0,-2.6914,-2.6917,-2.6928,-2.6914,-2.6913,-2.6863,-2.6875,-2.6864,-2.6867,-2.6823,-2.6813,-2.6828,-2.6785,-2.6785,-2.6833,-2.6885,-2.6771,-2.6773,-2.6958,-2.6964,-2.697,-2.7088,0,0,0,0,0,0,-2.6913,-2.6917,-2.6949,-2.6915,-2.6914,-2.6973,-2.6878,-2.6866,-2.6871,-2.6859,-2.6832,-2.6824,-2.6782,-2.683,-2.6835,-2.6886,-2.6775,-2.6953,-2.6961,-2.6968,-2.708,-2.7098,-2.7113,0,0,0,0,0,-2.6913,-2.6985,-2.6952,-2.6955,-2.6954,-2.6976,-2.6975,-2.6925,-2.6875,-2.6907,-2.6879,-2.6825,-2.6879,-2.6836,-2.684,-2.6893,-2.695,-2.6959,-2.6967,-2.7072,-2.7094,-2.7113,0,0,0,0,0,0,-2.7027,-2.6979,-2.6942,-2.7005,-2.6995,-2.6957,-2.6996,-2.695,-2.6954,-2.6944,-2.6882,-2.6876,-2.6933,-2.6918,-2.687,-2.6976,-2.6905,-2.6916,-2.6983,-2.7004,-2.702,-2.7022,-2.6777,0,0,0,0,0,-2.706,-2.7081,-2.7039,-2.7099,-2.7096,-2.7047,-2.7055,-2.7017,-2.7004,-2.7,-2.6975,-2.6966,-2.698,-2.6992,-2.7003,-2.7077,-2.707,-2.7116,-2.7133,-2.7147,-2.7156,-2.7194,-2.7214,-2.7001,-2.7001,-2.7001,0,0,-2.7128,-2.7104,-2.7122,-2.7121,-2.7109,-2.7133,-2.7044,-2.7074,-2.7091,-2.7005,-2.7047,-2.7029,-2.7015,-2.7076,-2.7102,-2.7065,-2.7213,-2.7158,-2.717,-2.7171,-2.7205,-2.7225,-2.7243,-2.7007,-2.7006,-2.7005,0,0,-2.7263,-2.7248,-2.7295,-2.7285,-2.7267,-2.7235,-2.7247,-2.7215,-2.72,-2.7241,-2.7177,-2.7197,-2.7224,-2.7216,-2.7216,-2.7349,-2.7299,-2.7354,-2.7441,-2.7479,-2.7496,-2.751,-2.7557,-2.7574,-2.7364,-2.7364,-2.7364,0,-2.735,-2.7382,-2.7326,-2.7359,-2.7361,-2.7283,-2.7331,-2.7324,-2.7312,-2.7315,-2.7274,-2.7306,-2.7291,-2.7349,-2.7381,-2.7384,-2.7395,-2.7356,-2.7498,-2.7512,-2.7524,-2.7568,-2.7586,-2.7371,-2.737,-2.7369,-2.7369,0,-2.7489,-2.7513,-2.7554,-2.7542,-2.7549,-2.759,-2.754,-2.7554,-2.7515,-2.7487,-2.7531,-2.751,-2.7516,-2.7527,-2.749,-2.758,-2.7558,-2.7509,-2.7436,-2.7552,-2.7592,-2.7609,-2.7381,-2.7378,-2.7376,-2.7374,0,0,-2.7695,-2.7652,-2.7668,-2.7661,-2.7636,-2.7654,-2.7692,-2.7696,-2.7708,-2.7703,-2.7733,-2.7758,-2.7712,-2.7711,-2.7673,-2.7706,-2.7812,-2.7653,-2.7651,-2.7682,-2.7909,-2.7945,-2.7966,-2.7779,-2.7782,-2.7785,-2.791,0,-2.7822,-2.7882,-2.7833,-2.7903,-2.7924,-2.785,-2.7883,-2.7872,-2.7847,-2.7862,-2.7835,-2.7853,-2.7791,-2.7791,-2.782,-2.7793,-2.7857,-2.7783,-2.7806,-2.7808,-2.7811,-2.7987,-2.8025,-2.8144,-2.7925,-2.7928,-2.793,0,-2.7979,-2.7979,-2.805,-2.802,-2.8027,-2.8057,-2.8057,-2.8072,-2.8058,-2.8038,-2.8038,-2.7991,-2.8026,-2.7956,-2.8004,-2.7955,-2.7962,-2.795,-2.7953,-2.7953,-2.7875,-2.799,-2.8181,-2.8199,-2.7954,-2.7952,-2.795,0,-2.812,-2.8139,-2.8183,-2.818,-2.8147,-2.8169,-2.8157,-2.8139,-2.8145,-2.8145,-2.8148,-2.8154,-2.8156,-2.8162,-2.8118,-2.8071,-2.8171,-2.8098,-2.8155,-2.8156,-2.8178,-2.8177,-2.8372,-2.8185,-2.8185,-2.8185,-2.8184,0,-2.8267,-2.8313,-2.8246,-2.8274,-2.8323,-2.8267,-2.8318,-2.8298,-2.8283,-2.8306,-2.8244,-2.8267,-2.8207,-2.8224,-2.819,-2.8235,-2.8237,-2.8222,-2.8212,-2.8226,-2.8228,-2.8229,-2.8219,-2.8189,-2.8188,-2.8187,-2.8187,0,-2.8432,-2.839,-2.8433,-2.8398,-2.839,-2.8428,-2.8398,-2.8422,-2.8394,-2.8423,-2.8427,-2.8382,-2.8399,-2.8356,-2.8367,-2.8344,-2.8407,-2.8385,-2.8412,-2.8404,-2.8464,-2.8459,-2.8665,-2.8689,-2.8489,-2.8491,-2.8492,0,-2.8528,-2.8561,-2.8529,-2.8539,-2.853,-2.8547,-2.8552,-2.8499,-2.8507,-2.8494,-2.852,-2.8532,-2.8537,-2.8568,-2.8537,-2.8545,-2.8522,-2.8594,-2.8522,-2.8536,-2.8521,-2.8519,-2.8522,-2.8608,-2.861,-2.8612,-2.8614,0,-2.8701,-2.8679,-2.8688,-2.869,-2.8698,-2.8697,-2.8692,-2.8705,-2.8647,-2.866,-2.8675,-2.868,-2.8691,-2.8703,-2.8704,-2.8692,-2.8644,-2.8637,-2.865,-2.8665,-2.8678,-2.8671,-2.845,-2.8632,-2.863,-2.8629,-2.8628,-2.8627,-2.8834,-2.886,-2.8841,-2.8854,-2.8844,-2.8841,-2.8862,-2.8836,-2.8847,-2.8851,-2.8819,-2.8842,-2.8827,-2.8824,-2.8817,-2.8834,-2.8801,-2.8821,-2.8826,-2.8831,-2.8841,-2.8677,-2.8834,-2.8834,-2.8833,-2.8833,-2.8832,0,-2.9003,-2.8987,-2.8999,-2.8994,-2.9004,-2.8957,-2.895,-2.8961,-2.8982,-2.8972,-2.8979,-2.8997,-2.9009,-2.8979,-2.8987,-2.9007,-2.8985,-2.901,-2.9007,-2.9005,-2.887,-2.8857,-2.9028,-2.9028,-2.9028,-2.9028,-2.9028,-2.9028,-2.9092,-2.9133,-2.9108,-2.9145,-2.9129,-2.915,-2.9149,-2.9147,-2.9138,-2.9161,-2.917,-2.915,-2.9133,-2.9138,-2.9147,-2.9138,-2.9143,-2.9177,-2.916,-2.9034,-2.9015,-2.8997,-2.8984,-2.9179,-2.9179,-2.9293,-2.9294,-2.9295]},{"header":{"parameterUnit":"m.s-1","parameterCategory":1,"la1":30.2991,"la2":30.254,"lo1":-89.0895,"lo2":-89.0444,"dy":0.0017,"dx":0.0017,"nx":28,"ny":28,"refTime":"2023-04-16T21:00:00:Z","depth":0,"parameterNumber":3,"parameterNumberName":"V-component_of_WINDS"},"data":[0,0,0,0,0,0,0,0,0,0,0,0,0,0,0,0,0,0,0,0,0,0,0,0,0,0,0,0,0,0,0,0,0,0,0,0,0,0,0,0,0,0,0,0,0,0,0,0,0,0,0,0,0,0,0,0,0,0,0.14,0.1398,0,0.1259,0.1257,0.1255,0.1141,0.114,0.1139,0.1138,0.099,0.0987,0.0984,0,0,0,0,0,0,0,0,0,0,0,0,0,0.1568,0.1565,0.14,0.1398,0.1396,0.1259,0.1257,0.1255,0.1141,0.114,0.1138,0.1137,0.0991,0.0987,0.0984,0,0,0,0,0,0,0,0,0,0,0,0,0,0.1468,0.1564,0.14,0.1323,0.1315,0.1259,0.1257,0.1254,0.1142,0.114,0.1138,0.1136,0.0992,0.0988,0.0983,0.0992,0,0,0.097,0.0968,0,0,0,0,0,0,0,0,0.1473,0.1461,0.1336,0.1328,0.1319,0.1216,0.1262,0.1166,0.1142,0.1207,0.1138,0.1136,0.1066,0.1056,0.1033,0.0985,0.0978,0.097,0.0967,0.0965,0.0964,0,0,0,0,0,0,0,0.148,0.1467,0.1344,0.1335,0.1324,0.1294,0.1278,0.1243,0.1148,0.1201,0.1193,0.1178,0.1061,0.1037,0.1028,0.0976,0.097,0.0966,0.0964,0.0962,0.0928,0.0929,0,0,0,0,0,0,0.15,0.1473,0.1348,0.134,0.1394,0.1293,0.1275,0.1251,0.1148,0.1131,0.118,0.1173,0.1045,0.1034,0.1023,0.1026,0.0965,0.0961,0.0959,0.0926,0.0928,0.093,0,0,0,0,0,0,0.1504,0.149,0.1354,0.1404,0.1385,0.1292,0.1266,0.1249,0.1225,0.1132,0.1114,0.1173,0.1044,0.1029,0.1,0.1019,0.0959,0.0956,0.0924,0.0927,0.0929,0.1032,0,0,0,0,0,0,0.1509,0.1492,0.1495,0.1405,0.1382,0.1335,0.1267,0.1247,0.1218,0.1208,0.1121,0.1104,0.1041,0.1008,0.0996,0.1012,0.0952,0.0922,0.0925,0.0928,0.1027,0.1038,0.1048,0,0,0,0,0,0.1516,0.1529,0.1496,0.1481,0.1384,0.1337,0.1324,0.1251,0.122,0.1222,0.1162,0.1107,0.1019,0.1006,0.0992,0.1007,0.092,0.0924,0.0928,0.1022,0.1036,0.1048,0,0,0,0,0,0,0.1622,0.1516,0.1478,0.1463,0.141,0.1318,0.1318,0.1268,0.1222,0.1215,0.1126,0.1107,0.1088,0.1044,0.1031,0.1009,0.0962,0.0964,0.1039,0.1051,0.1061,0.1072,0.0949,0,0,0,0,0,0.1644,0.1615,0.1523,0.1519,0.1494,0.1411,0.1387,0.1337,0.1278,0.1254,0.1192,0.1136,0.1096,0.1071,0.1028,0.102,0.0999,0.1023,0.1034,0.1043,0.1045,0.1037,0.1047,0.0942,0.0942,0.0942,0,0,0.1688,0.1627,0.1614,0.1539,0.1492,0.1463,0.1393,0.1365,0.1343,0.1249,0.1219,0.1172,0.1104,0.1086,0.1074,0.1048,0.1069,0.1048,0.1056,0.1052,0.1042,0.1052,0.1061,0.0945,0.0944,0.0944,0,0,0.1755,0.1706,0.1697,0.1652,0.1582,0.1526,0.1525,0.144,0.1405,0.1374,0.1303,0.1275,0.1207,0.1161,0.1129,0.1179,0.1127,0.1168,0.1222,0.1216,0.1224,0.1231,0.1249,0.1256,0.117,0.117,0.117,0,0.1819,0.1774,0.1698,0.1675,0.1644,0.156,0.1549,0.1509,0.1428,0.1408,0.1381,0.1294,0.1242,0.1212,0.1225,0.1201,0.1196,0.1177,0.1229,0.1235,0.124,0.1256,0.1263,0.1176,0.1175,0.1175,0.1174,0,0.1856,0.1826,0.1827,0.1753,0.1722,0.1705,0.1626,0.1603,0.1555,0.1503,0.1472,0.1406,0.1349,0.1338,0.129,0.1302,0.1288,0.1246,0.1197,0.1257,0.1271,0.1276,0.1183,0.1182,0.118,0.1179,0,0,0.1985,0.187,0.1872,0.1837,0.1755,0.1729,0.1709,0.1654,0.1637,0.1584,0.1564,0.1509,0.147,0.1434,0.138,0.1375,0.1419,0.1333,0.133,0.1351,0.1427,0.1459,0.1467,0.1384,0.1384,0.1385,0.1432,0,0.2038,0.1998,0.193,0.1911,0.1882,0.1802,0.1784,0.1731,0.1681,0.1649,0.1593,0.1555,0.1507,0.1484,0.1475,0.1416,0.1433,0.1411,0.1363,0.1363,0.1384,0.1474,0.1508,0.1556,0.1437,0.1438,0.1439,0,0.2095,0.2049,0.2029,0.1948,0.1933,0.1919,0.1864,0.1834,0.1771,0.1735,0.1696,0.1638,0.1611,0.1567,0.1528,0.1515,0.1491,0.1459,0.1459,0.1452,0.1405,0.147,0.1569,0.1577,0.1446,0.1446,0.1445,0,0.2192,0.2124,0.2103,0.2076,0.1982,0.1974,0.1934,0.187,0.1842,0.1793,0.1774,0.1722,0.1694,0.1655,0.1584,0.1559,0.1553,0.1503,0.1522,0.1524,0.1525,0.1526,0.1622,0.151,0.151,0.151,0.151,0,0.2258,0.2249,0.2145,0.2133,0.2119,0.204,0.2029,0.1981,0.1926,0.1901,0.1828,0.1807,0.1714,0.1682,0.1626,0.1603,0.159,0.156,0.1545,0.1566,0.157,0.155,0.1544,0.1512,0.1511,0.1511,0.151,0,0.2364,0.2294,0.2266,0.218,0.2158,0.2152,0.2078,0.2062,0.2008,0.1978,0.1966,0.1882,0.184,0.1765,0.1701,0.1664,0.1652,0.1626,0.1674,0.1664,0.1688,0.1687,0.1774,0.1782,0.1666,0.1667,0.1668,0,0.2411,0.2402,0.2316,0.2295,0.2258,0.2226,0.2197,0.2118,0.2091,0.202,0.2013,0.1966,0.1923,0.186,0.1792,0.1743,0.1716,0.175,0.1708,0.1729,0.1716,0.1718,0.1716,0.1759,0.1761,0.1762,0.1764,0,0.2502,0.2468,0.2431,0.2381,0.235,0.2306,0.2259,0.2246,0.2157,0.213,0.2087,0.2055,0.199,0.1944,0.1885,0.1842,0.1788,0.1778,0.1779,0.1801,0.1829,0.1814,0.17,0.1776,0.1774,0.1774,0.1773,0.1772,0.2579,0.2568,0.2506,0.2466,0.2423,0.2381,0.2362,0.2307,0.227,0.2212,0.2168,0.2129,0.2066,0.1982,0.1943,0.191,0.1884,0.1887,0.1887,0.1889,0.1898,0.1834,0.1899,0.1898,0.1898,0.1897,0.1897,0,0.2667,0.2623,0.2588,0.2525,0.2494,0.2447,0.2393,0.2369,0.2336,0.2283,0.2244,0.2194,0.2149,0.2078,0.2027,0.2015,0.1988,0.2004,0.2004,0.1995,0.1923,0.1927,0.2026,0.2026,0.2026,0.2026,0.2026,0.2026,0.2708,0.2687,0.2646,0.2602,0.2557,0.252,0.2493,0.2453,0.2411,0.236,0.2322,0.2277,0.2216,0.2161,0.2117,0.2097,0.2081,0.2105,0.2077,0.2012,0.2,0.1988,0.1991,0.2102,0.2102,0.2151,0.2152,0.2152]}]]